Satellite: SRMSAT Catalog number: 37841 Epoch time: 12130.66004140 Element set: 0147 Inclination: 019.9747 deg RA of node: 235.7683 deg Eccentricity: 0.0011845 Arg of perigee: 129.3185 deg Mean anomaly: 230.8312 deg Mean motion: 14.10136386 rev/day Decay rate: 2.64e-06 rev/day^2 Epoch rev: 02975 Checksum: 278
Satellite: RAX-2 Catalog number: 37853 Epoch time: 12130.98765468 Element set: 0175 Inclination: 101.7155 deg RA of node: 153.7882 deg Eccentricity: 0.0248646 Arg of perigee: 099.8776 deg Mean anomaly: 263.0592 deg Mean motion: 14.79608040 rev/day Decay rate: 5.047e-05 rev/day^2 Epoch rev: 02875 Checksum: 344
Satellite: AUBIESAT Catalog number: 37854 Epoch time: 12130.95188896 Element set: 0182 Inclination: 101.7176 deg RA of node: 153.9350 deg Eccentricity: 0.0250563 Arg of perigee: 099.6022 deg Mean anomaly: 263.3583 deg Mean motion: 14.79963988 rev/day Decay rate: 5.023e-05 rev/day^2 Epoch rev: 02873 Checksum: 329
Satellite: HRBE Catalog number: 37855 Epoch time: 12130.96204719 Element set: 0177 Inclination: 101.7199 deg RA of node: 153.9193 deg Eccentricity: 0.0249937 Arg of perigee: 099.3746 deg Mean anomaly: 263.5805 deg Mean motion: 14.79835773 rev/day Decay rate: 5.001e-05 rev/day^2 Epoch rev: 02873 Checksum: 336
Satellite: RS-39 Catalog number: 38051 Epoch time: 12130.96910094 Element set: 0319 Inclination: 051.6307 deg RA of node: 341.8813 deg Eccentricity: 0.0010751 Arg of perigee: 260.3847 deg Mean anomaly: 240.4136 deg Mean motion: 15.23622321 rev/day Decay rate: 6.491e-05 rev/day^2 Epoch rev: 01614 Checksum: 269
Satellite: E-STAR Catalog number: 38079 Epoch time: 12131.73937219 Element set: 217 Inclination: 069.4995 deg RA of node: 041.1367 deg Eccentricity: 0.0753534 Arg of perigee: 294.9815 deg Mean anomaly: 057.5220 deg Mean motion: 14.12989487 rev/day Decay rate: 3.1723e-04 rev/day^2 Epoch rev: 1229 Checksum: 327
Satellite: GOLIAT Catalog number: 38085 Epoch time: 12131.13915793 Element set: 203 Inclination: 069.4992 deg RA of node: 042.6468 deg Eccentricity: 0.0756665 Arg of perigee: 295.8165 deg Mean anomaly: 056.7094 deg Mean motion: 14.12032533 rev/day Decay rate: 2.9736e-04 rev/day^2 Epoch rev: 1220 Checksum: 309
/EX